Theta_e
331 332 331 332 332 333 334 335 338 340 343 350 351 352 353 353 352 351 349 347 345 344 343 343 343 343 342 341 341 339 339 339 338 340 341 337 340 338 336 338 336 335 335 336 338 338 340 343 340 341 342 342 341 341 341 342 340 343 339 339 339 339 337
329 331 332 332 333 334 334 336 337 340 345 350 351 352 352 351 350 349 348 346 345 343 343 343 344 343 342 340 342 339 337 339 341 344 341 345 343 340 336 335 334 335 336 337 338 340 341 340 340 341 341 341 340 340 340 340 340 339 338 337 336 335 336
328 330 332 332 334 335 335 336 339 342 347 350 351 351 350 349 349 348 347 345 344 343 343 342 343 343 341 340 339 338 337 337 340 339 336 336 338 337 337 337 337 333 335 339 338 338 341 340 340 339 339 338 339 339 340 339 339 339 338 337 337 335 334
327 329 332 333 334 337 337 338 341 344 349 350 351 351 349 348 348 347 347 345 344 342 342 342 343 341 339 340 337 338 337 338 339 339 337 336 336 340 338 336 335 334 336 336 341 341 340 337 337 338 345 339 338 338 339 338 337 337 337 337 335 335 335
327 330 333 333 333 336 337 338 342 344 348 350 351 351 348 348 347 346 346 346 344 342 343 342 343 338 339 339 339 340 338 338 338 340 339 339 340 339 334 335 334 335 337 338 337 339 338 337 337 337 337 337 337 336 337 337 337 337 336 336 334 335 335
328 329 332 332 333 334 338 339 343 345 347 349 350 349 347 347 346 345 345 346 344 344 344 342 340 338 337 338 339 340 340 341 338 339 337 338 338 336 333 332 332 332 335 334 338 336 338 336 335 335 335 335 335 335 335 336 337 337 336 336 336 336 336
329 329 333 332 332 333 337 339 342 344 347 349 351 349 346 346 345 345 345 345 344 343 342 340 338 337 337 338 338 339 340 339 340 339 339 339 337 336 335 335 339 334 333 334 335 336 335 334 335 335 336 335 335 335 334 335 335 337 337 336 336 336 336
331 333 335 333 333 333 335 339 340 343 346 349 350 346 344 345 344 344 344 344 345 344 342 340 337 338 337 338 339 338 339 339 338 339 337 336 337 336 336 336 335 335 335 333 333 336 335 335 336 337 336 335 334 334 335 335 335 337 337 336 336 335 338
332 333 335 334 334 334 335 337 340 342 346 348 347 345 343 343 343 343 343 344 345 343 341 340 338 340 339 338 338 339 337 339 338 337 338 336 337 337 337 337 335 336 335 334 334 336 336 335 336 335 335 334 334 333 334 336 336 336 335 335 335 335 335
332 331 334 335 335 337 337 338 338 341 346 347 347 343 342 342 342 342 342 344 344 342 340 339 340 341 340 339 338 339 339 338 339 339 338 337 337 336 336 335 334 336 334 333 332 332 334 336 335 335 334 334 334 334 334 335 336 336 336 335 333 333 333
337 337 334 334 333 334 336 340 340 341 344 346 346 344 341 341 341 341 341 343 343 342 341 339 341 340 340 340 339 339 339 338 339 338 336 335 335 335 334 333 332 333 332 332 331 332 331 334 335 332 332 334 333 333 333 334 336 336 334 334 334 335 335
338 335 333 332 339 335 335 340 343 344 343 344 344 343 341 341 342 341 341 341 342 341 340 340 341 340 340 340 339 338 338 338 338 336 335 335 335 334 332 332 331 329 330 331 331 331 332 331 332 334 331 333 334 334 333 333 336 334 334 334 334 335 334
336 335 336 332 341 338 338 341 343 344 344 344 343 341 340 341 342 340 340 340 341 341 340 340 340 340 340 339 338 337 336 337 336 336 335 336 334 334 333 332 329 329 332 332 332 331 330 330 329 330 331 332 333 334 334 335 337 334 332 333 333 333 332
342 335 336 335 343 340 339 341 343 344 343 343 342 341 339 340 342 340 339 339 338 340 339 341 340 340 340 339 339 337 337 337 337 336 336 336 336 335 333 332 332 333 334 334 330 330 329 330 330 330 332 331 331 331 332 331 335 334 334 332 332 332 331
335 335 336 337 342 341 340 341 343 344 344 343 342 340 340 340 340 339 339 339 337 339 338 340 340 340 340 339 339 338 337 337 337 337 336 337 335 334 333 333 332 333 333 331 332 335 332 332 331 330 330 330 331 331 332 335 332 332 331 333 333 332 330
333 333 335 335 339 342 342 343 344 345 345 343 341 340 340 341 340 339 339 338 337 338 336 340 340 340 340 338 339 338 337 337 338 337 336 335 333 332 331 331 331 332 332 332 333 332 334 333 333 332 331 329 329 332 334 333 333 336 336 335 335 331 332
324 327 335 336 338 340 341 343 344 345 345 343 342 341 341 341 341 339 339 338 337 336 335 337 337 337 337 336 337 337 337 337 336 336 335 334 333 332 333 332 333 333 332 332 333 334 334 335 333 331 330 329 328 327 331 332 334 332 329 329 332 332 330
329 332 333 335 339 341 340 341 342 343 344 344 343 343 341 341 340 339 337 334 335 335 337 336 335 336 337 337 336 335 335 334 335 334 334 333 332 332 332 333 333 332 332 333 333 334 335 334 333 332 331 331 329 329 332 332 334 326 326 327 327 330 330
329 329 329 336 339 342 342 341 341 343 343 344 344 344 343 342 339 333 332 333 333 336 337 340 338 338 337 337 336 337 335 335 335 333 333 333 332 332 333 332 332 332 333 333 335 335 334 334 334 332 331 331 329 330 334 333 332 325 324 324 324 325 327
326 328 330 331 340 344 345 344 343 345 345 343 344 345 343 338 332 332 333 334 335 335 335 337 338 337 336 337 339 338 336 335 334 334 333 334 333 333 333 333 332 333 333 334 335 335 335 334 332 331 330 330 329 330 330 330 330 325 322 321 321 322 325
330 330 329 330 334 339 345 345 344 344 344 344 344 341 334 332 333 332 332 332 332 333 334 336 336 336 338 339 339 338 336 335 334 334 334 334 334 334 333 333 333 333 334 334 333 334 333 332 330 330 330 331 332 330 332 334 329 323 321 318 317 318 322
326 329 329 329 328 332 340 345 344 344 343 345 343 336 334 333 333 331 330 331 331 333 333 334 335 338 340 339 338 337 336 335 334 334 334 334 333 333 333 333 333 333 334 335 334 334 333 332 332 330 329 329 330 330 330 332 326 322 320 318 317 319 323
324 326 327 330 334 341 349 348 345 347 343 343 340 334 333 334 333 330 330 331 332 332 333 333 334 339 338 337 338 338 337 335 334 333 333 334 333 333 333 333 333 333 335 335 335 334 333 331 330 330 329 328 329 328 327 329 320 315 316 316 315 318 323
331 338 340 342 346 352 352 355 352 347 342 341 338 334 333 332 332 331 330 331 330 328 330 330 333 338 338 338 340 339 338 336 335 334 334 334 334 333 333 334 334 335 337 335 334 333 332 331 327 329 328 327 326 328 327 326 321 315 314 313 315 320 321
337 339 343 344 346 348 350 352 353 347 343 341 335 333 332 332 330 328 328 330 329 329 328 328 332 338 338 339 340 340 339 338 336 335 334 334 334 334 334 334 334 335 336 336 335 333 330 329 327 328 327 329 329 330 329 328 323 312 312 312 312 317 322
337 341 342 344 348 351 351 351 351 347 343 338 333 333 332 330 327 326 326 327 327 327 326 328 333 339 339 339 339 340 339 338 337 335 334 334 334 335 335 335 334 334 334 334 333 330 327 325 327 326 326 326 328 328 328 329 328 327 314 312 311 315 321
339 340 340 341 346 352 350 349 349 344 340 336 333 332 331 329 325 324 327 328 327 327 328 331 335 339 339 339 340 339 339 337 337 335 335 334 332 332 335 335 333 333 333 333 331 328 325 325 326 326 324 325 327 328 327 329 328 325 313 310 311 313 316
334 335 335 347 348 347 348 347 350 343 340 336 333 332 330 328 326 326 327 328 329 330 332 334 339 340 339 339 339 339 338 337 337 336 333 333 333 331 332 335 336 335 332 331 330 326 323 324 324 323 322 324 327 325 324 328 331 328 321 315 312 310 311
333 332 332 342 344 348 348 345 340 339 338 336 333 331 330 329 328 328 330 329 331 335 337 340 342 341 341 340 339 338 337 334 334 334 334 332 332 331 333 331 329 327 329 329 328 325 323 322 322 321 322 324 324 323 324 323 325 326 326 316 311 308 308
339 340 340 342 343 338 337 334 334 334 337 337 335 333 332 332 332 332 332 333 340 342 344 343 343 342 341 340 339 338 334 333 334 334 334 334 331 330 330 329 326 326 325 326 325 321 320 320 321 322 322 320 320 323 323 322 322 325 326 323 313 308 306
337 336 337 337 337 336 336 336 334 334 334 336 336 336 336 336 336 340 340 343 344 344 344 344 344 343 343 341 339 334 333 332 332 333 332 331 331 329 329 326 325 323 325 328 324 321 319 319 320 321 321 321 320 319 320 322 324 325 326 323 320 312 309
334 334 335 335 335 336 338 338 336 334 332 335 337 338 340 339 341 341 342 346 346 344 344 343 340 337 337 339 338 335 333 330 331 330 328 330 331 328 326 325 327 326 325 324 322 322 320 320 321 321 321 322 322 321 321 323 323 319 317 319 318 316 313
334 335 334 333 335 338 335 334 334 333 333 335 342 342 343 344 344 344 344 344 345 345 344 343 340 339 338 338 335 333 331 329 328 326 325 326 331 328 328 326 327 326 324 323 322 320 320 321 322 323 322 321 321 320 320 319 316 311 310 311 310 311 313
331 331 333 334 333 334 332 332 330 330 330 333 341 342 344 344 343 344 343 343 343 342 343 342 342 341 339 337 334 331 331 328 336 329 327 329 325 324 326 328 327 325 321 320 320 320 321 321 323 320 320 319 319 319 320 318 312 307 305 306 306 306 308
331 331 331 332 333 333 330 329 329 330 331 332 338 339 338 339 341 342 339 337 336 337 339 340 341 341 340 339 337 335 335 332 334 330 326 316 312 309 308 309 316 315 310 310 309 314 317 319 316 316 316 319 315 316 318 315 309 308 304 306 302 301 302
331 331 331 333 336 336 335 333 330 331 332 332 335 335 330 326 327 332 334 335 336 336 339 340 339 337 334 332 332 333 331 328 328 329 325 316 311 308 307 305 297 304 312 309 307 303 301 306 312 312 314 309 307 309 309 308 308 301 295 294 293 293 294
331 331 331 333 334 334 334 333 333 329 327 328 330 330 330 329 331 332 335 336 336 337 336 335 332 330 330 328 327 327 328 327 327 327 326 322 315 313 310 308 306 295 296 302 302 298 294 295 297 301 308 311 306 305 304 303 299 295 294 293 293 293 292
333 334 336 338 336 333 331 330 328 327 326 326 328 330 331 330 331 331 331 331 332 333 332 334 332 329 329 325 324 329 330 326 327 328 326 326 323 317 314 309 307 306 296 294 297 295 293 293 294 295 297 302 307 306 307 302 298 295 294 294 294 294 293
Wind_Speed
13 16 15 14 15 15 16 16 16 15 14 14 14 14 14 13 12 12 12 12 13 11 11 10 10 8 8 7 7 6 6 5 5 4 4 3 3 4 2 2 2 2 2 1 2 2 2 1 1 2 1 0 0 1 1 0 1 1 3 2 1 2 2
13 14 15 14 13 14 16 16 16 15 14 15 15 16 14 14 13 12 12 13 14 14 12 11 10 9 9 7 7 6 6 5 5 4 4 2 2 2 3 3 2 3 2 3 3 3 1 2 2 1 0 0 1 2 2 2 2 3 3 3 2 3 2
14 12 15 14 14 14 16 15 16 16 16 15 16 15 15 14 15 15 13 12 12 12 10 11 11 10 9 8 6 7 6 5 5 6 5 4 4 4 4 4 4 2 3 4 3 2 2 1 0 0 2 2 2 3 3 3 3 3 3 3 3 2 3
12 12 15 16 15 15 18 17 17 16 15 17 17 17 16 15 14 14 13 13 13 12 13 11 10 10 10 9 8 6 7 6 6 6 6 5 5 4 4 4 3 3 4 4 3 4 3 2 2 2 2 2 3 3 3 3 3 3 3 3 2 2 3
13 11 13 14 14 13 15 15 16 16 17 17 16 16 15 14 13 12 11 12 13 14 13 13 10 9 8 9 7 7 7 7 6 5 5 5 5 4 4 3 3 3 4 4 3 3 3 3 3 3 2 3 3 3 3 3 3 3 3 2 3 3 3
12 9 13 14 13 13 14 16 17 18 18 18 17 16 15 15 13 14 13 12 11 9 9 9 8 8 8 8 8 7 7 6 6 5 5 4 4 4 4 3 3 4 4 4 3 3 4 4 4 4 4 3 3 3 3 2 2 2 3 3 3 3 4
13 11 10 13 12 12 14 15 16 16 16 16 15 14 13 14 16 15 13 13 12 13 12 10 9 7 7 8 8 9 8 7 6 7 5 5 5 4 4 4 4 4 5 4 4 4 4 4 5 4 4 4 4 3 3 3 3 3 3 3 4 4 4
10 8 9 12 13 14 13 14 15 15 14 12 13 14 15 14 13 14 14 13 13 12 11 12 9 8 8 7 8 8 8 7 6 6 5 5 5 5 5 5 5 5 4 4 5 5 6 5 5 4 5 5 4 4 4 4 4 4 3 3 3 3 3
10 11 10 12 14 14 14 14 15 15 16 16 17 16 16 14 15 14 15 14 13 13 13 12 10 9 8 8 8 8 8 8 7 7 6 7 6 6 6 6 7 6 5 5 5 5 6 6 5 5 5 5 5 5 4 5 5 4 3 2 2 3 3
11 10 9 10 11 11 12 11 12 11 13 14 14 14 15 14 14 13 14 14 14 15 14 12 11 10 9 9 8 8 8 8 7 8 8 7 7 7 6 7 6 6 6 7 7 6 4 5 5 5 4 5 5 5 5 5 5 4 3 3 2 1 2
8 9 10 10 11 12 11 12 13 14 14 14 15 14 14 14 15 14 14 14 15 14 14 12 11 11 11 10 10 9 8 8 7 8 7 7 7 7 7 7 7 2 4 3 3 3 4 3 4 4 4 5 6 5 5 6 5 4 4 3 3 3 3
8 9 11 12 8 10 11 12 13 14 14 13 13 14 14 14 14 13 14 15 14 14 14 12 11 12 11 10 10 8 9 7 7 6 6 7 6 6 6 6 4 3 3 4 3 1 0 0 1 2 3 4 4 4 4 4 4 5 5 4 3 3 3
8 9 8 11 9 11 10 9 14 15 15 14 14 13 13 14 15 13 14 15 15 13 13 12 12 12 11 10 9 8 7 7 6 7 7 7 7 6 5 4 3 2 2 1 1 1 1 3 4 4 4 3 1 1 2 3 5 4 3 3 3 3 3
8 7 6 7 7 10 13 14 13 14 14 13 13 13 12 12 14 14 15 16 14 14 14 11 13 12 11 10 8 7 8 8 10 9 8 7 7 6 6 5 4 3 3 3 2 2 3 3 3 4 3 3 2 3 4 5 3 4 3 3 3 4 3
8 10 9 9 8 11 11 11 12 13 13 13 13 13 14 13 13 11 12 13 13 15 16 13 13 12 12 11 11 10 10 9 8 8 7 7 6 5 5 5 4 4 3 1 2 2 3 4 4 4 4 4 4 5 5 3 5 4 3 4 4 4 4
9 8 9 10 9 10 12 14 13 13 13 12 14 14 14 14 14 13 14 14 13 14 12 13 14 13 11 9 10 9 9 8 8 8 8 7 7 6 6 5 5 4 4 4 4 4 4 4 4 5 5 5 4 4 3 4 4 5 8 7 5 4 5
5 7 8 8 9 10 11 12 13 12 12 13 14 16 16 15 14 13 14 13 13 13 12 13 13 12 12 9 9 8 8 8 8 7 8 8 7 6 6 6 5 5 5 4 4 5 5 4 5 5 6 6 5 4 4 4 5 9 10 10 10 6 5
2 1 2 9 9 8 8 9 10 12 13 14 14 14 14 13 11 11 6 5 5 6 8 11 12 11 9 9 9 10 9 8 7 7 7 7 7 7 7 6 6 5 5 5 6 6 5 6 6 6 6 5 5 5 5 5 7 11 11 11 10 8 5
0 0 1 4 9 9 9 10 10 12 13 13 14 13 13 11 8 14 17 17 13 12 8 3 9 11 11 9 8 7 6 7 8 8 7 8 8 7 6 6 6 5 5 6 6 5 6 7 6 6 6 6 5 5 4 4 7 10 10 9 8 8 5
2 2 1 2 4 10 11 10 9 11 13 14 15 14 7 15 17 18 18 18 17 17 18 15 10 11 10 9 7 8 10 9 9 9 9 8 8 7 7 6 7 6 6 6 5 6 6 6 6 6 6 5 4 4 3 4 6 9 9 9 8 9 5
4 4 4 4 3 5 8 10 10 6 7 11 10 12 17 15 15 16 15 16 17 14 10 7 6 7 8 9 9 11 11 10 10 10 9 8 7 7 7 7 6 6 6 6 6 6 7 7 6 6 5 4 3 3 4 5 8 10 10 10 7 4 3
4 5 5 6 6 6 6 10 10 10 10 7 13 12 13 14 16 17 16 14 12 7 10 10 6 7 9 11 11 11 11 11 10 10 7 6 5 6 7 6 6 6 6 6 6 6 5 5 5 5 4 4 3 3 4 6 8 10 9 6 4 4 2
6 6 7 7 6 5 4 8 9 10 9 10 12 13 12 12 11 12 11 9 9 9 6 1 9 10 12 13 13 12 10 9 9 7 6 6 6 6 6 6 6 6 5 6 7 6 6 5 5 4 3 2 2 4 6 8 14 13 7 5 5 4 3
1 3 4 4 2 2 3 4 7 12 13 12 12 13 12 12 14 15 13 12 13 13 11 9 11 10 11 11 11 11 9 8 8 8 7 7 8 7 6 6 6 7 6 7 6 5 6 4 4 12 12 10 4 2 2 2 5 9 10 10 8 3 1
6 4 4 5 4 3 3 4 9 12 12 13 14 13 14 15 17 15 13 13 14 13 13 14 13 11 11 11 11 10 9 9 8 8 8 8 8 8 7 7 7 6 5 6 5 4 2 8 6 4 3 3 3 3 3 4 6 8 9 7 5 3 2
6 5 5 4 5 4 4 4 9 11 13 13 14 16 16 17 18 18 14 13 11 12 14 15 12 10 11 10 8 8 8 8 8 6 7 8 5 4 4 4 4 4 3 2 1 4 6 3 3 3 4 3 1 1 2 3 5 5 8 6 8 7 2
6 7 6 4 5 6 5 4 7 12 13 13 16 15 15 14 15 14 14 13 13 15 16 14 10 7 7 7 7 7 7 7 8 6 3 6 8 7 8 5 1 2 2 2 5 4 2 1 1 2 2 1 2 3 4 4 3 3 6 7 8 4 4
4 4 5 4 7 6 4 4 8 12 12 15 17 16 15 15 14 13 12 11 14 16 13 9 8 7 7 7 8 8 8 6 6 7 7 7 7 8 6 1 5 6 8 7 4 2 1 1 2 1 1 4 4 4 4 3 3 1 5 7 5 5 4
4 4 4 4 4 4 6 8 12 5 10 14 15 15 14 14 13 11 10 12 13 10 10 11 10 9 9 8 8 6 5 7 7 6 5 5 4 3 4 8 7 5 3 4 2 0 1 1 0 1 1 2 2 3 4 1 1 5 2 5 5 4 2
6 5 5 5 6 6 10 13 13 4 9 8 13 13 12 12 12 11 11 12 10 11 9 10 9 8 6 6 5 7 6 5 7 5 5 5 6 6 5 4 2 2 2 2 2 1 2 2 1 2 3 3 3 4 4 3 2 2 3 4 6 3 2
3 4 4 4 6 7 8 11 13 8 7 11 11 11 12 12 11 10 10 6 7 8 8 7 7 6 5 5 7 8 7 6 6 7 7 7 7 5 5 2 1 0 6 6 3 2 2 2 2 4 4 3 3 5 4 2 1 1 4 7 6 5 6
7 7 8 7 6 7 8 8 11 10 5 14 12 12 10 10 11 11 8 6 7 8 8 8 7 7 6 7 7 8 7 7 6 6 6 6 5 6 6 5 5 5 4 3 2 1 1 3 3 2 2 3 5 5 3 1 4 5 4 4 5 3 4
5 4 5 7 5 7 6 8 10 9 2 14 5 8 9 9 9 10 9 8 7 7 6 6 6 5 6 7 7 7 8 8 7 6 4 4 5 4 4 5 5 4 3 2 2 2 1 1 1 3 4 5 5 4 1 2 4 4 3 2 4 3 3
4 6 5 6 4 7 8 11 11 9 2 13 4 8 9 10 9 9 8 8 8 7 7 7 7 7 6 8 7 7 7 7 9 7 4 3 2 2 2 3 3 4 2 1 1 2 2 0 1 1 2 5 3 2 1 2 3 2 3 4 3 3 4
3 4 5 6 5 7 7 4 7 9 6 14 6 9 10 8 9 9 9 8 7 7 7 7 6 6 6 6 6 6 6 5 6 6 7 7 6 5 4 3 4 5 4 2 2 0 2 2 2 0 2 2 1 0 2 4 2 0 2 3 3 3 5
4 5 5 5 7 8 8 9 5 3 4 5 10 3 7 8 8 7 6 6 6 7 7 6 6 5 4 4 4 6 7 6 6 7 8 7 7 7 6 9 7 5 4 3 4 6 5 4 2 1 1 5 3 2 3 2 1 2 2 5 7 7 7
5 5 4 4 6 7 8 9 10 11 11 7 11 12 10 5 8 8 7 7 7 8 7 7 6 5 3 4 6 7 6 6 6 6 8 8 8 7 8 5 8 12 12 8 5 5 7 7 5 6 7 6 4 2 5 4 2 2 5 5 6 7 7
2 5 7 6 7 9 10 10 11 11 12 12 10 10 6 6 4 5 7 6 6 6 6 5 5 6 5 7 5 6 5 6 5 6 7 7 7 8 8 8 7 5 6 5 5 4 5 7 9 9 9 8 5 4 0 1 1 4 6 7 7 8 7
Wind_Direction
154 166 173 172 173 172 172 171 168 170 167 165 169 169 168 167 168 168 171 169 169 169 174 172 173 172 174 180 177 175 163 151 145 145 148 175 156 153 148 155 160 181 187 173 221 214 235 200 204 240 211 147 342 275 257 187 218 226 249 227 223 232 228
166 167 172 173 169 170 172 170 169 170 169 169 170 172 170 170 167 172 177 174 173 173 174 175 175 177 174 178 173 170 158 156 153 145 148 146 160 167 167 188 180 206 192 218 219 217 196 244 244 212 172 210 225 240 240 234 211 232 231 234 232 259 256
175 164 169 173 171 167 170 170 173 173 171 171 172 173 174 173 173 173 174 176 174 174 175 176 182 178 170 173 164 168 160 161 151 154 152 166 187 197 194 190 184 185 230 225 206 228 226 195 174 242 257 245 251 248 242 232 230 223 226 216 211 225 252
177 169 172 176 175 166 170 172 174 174 174 174 176 175 173 175 173 173 173 175 174 175 176 181 183 179 168 164 168 164 164 164 165 165 173 177 203 192 168 176 189 207 238 245 220 189 189 189 216 223 246 250 258 255 248 250 248 237 231 212 206 218 229
180 164 167 173 178 167 172 173 175 175 176 178 176 175 173 170 169 169 173 177 179 179 179 179 183 182 165 159 161 165 169 168 170 170 175 185 185 166 167 174 192 211 221 212 210 204 193 192 201 206 224 223 243 258 261 250 251 248 239 215 217 238 240
172 168 173 180 180 174 174 176 176 176 175 176 176 176 172 167 168 172 173 175 177 177 175 177 182 180 168 162 154 161 164 171 176 176 175 169 166 165 166 189 223 244 239 227 218 197 190 187 202 213 219 220 223 241 259 259 254 253 249 221 214 218 233
176 175 166 181 177 179 178 178 178 179 177 176 173 172 168 169 174 173 170 174 176 175 178 180 181 177 171 162 160 159 165 175 171 181 174 174 171 166 177 195 218 223 234 240 235 213 202 213 220 217 214 220 223 224 232 244 261 254 247 244 234 231 226
170 166 168 170 176 178 182 180 182 180 175 171 168 172 175 173 171 171 173 174 173 177 182 180 175 174 173 169 164 163 168 169 169 166 171 174 176 181 185 210 222 226 225 228 244 225 223 223 225 218 214 214 221 215 216 229 238 238 234 245 237 242 238
174 172 171 176 177 181 182 182 183 180 174 174 173 176 174 172 176 175 173 171 175 177 185 180 174 169 170 169 166 167 167 163 170 174 177 183 192 190 197 210 223 224 218 220 229 227 222 222 219 216 215 218 221 220 219 223 226 222 211 222 241 263 269
179 185 183 171 173 177 182 187 182 174 172 172 172 174 176 176 177 174 174 175 174 180 181 176 171 169 169 172 172 167 168 173 176 179 187 190 194 195 199 209 223 224 231 236 232 236 237 219 216 214 210 221 233 227 226 229 224 215 190 190 191 224 239
146 178 187 178 184 188 181 175 176 180 178 179 178 177 175 175 179 175 173 174 179 180 179 174 169 171 174 170 170 171 170 178 179 184 189 193 192 201 206 217 236 193 187 193 212 215 224 238 233 238 242 241 239 235 233 231 218 197 202 211 202 213 229
147 152 169 176 174 197 193 183 181 179 183 184 179 176 177 177 179 176 173 177 178 177 176 172 170 174 174 169 166 168 176 179 183 188 196 197 196 200 206 206 187 204 171 152 151 167 161 244 259 220 242 230 226 226 231 226 200 196 212 217 219 223 216
159 165 168 171 165 182 183 179 189 189 185 182 180 176 175 177 179 177 173 177 178 173 171 169 172 173 171 170 163 171 178 178 187 190 201 206 207 209 216 218 226 250 147 168 145 112 288 281 273 275 253 230 210 211 219 209 206 202 208 216 224 232 231
162 165 170 169 157 168 178 188 190 191 190 185 182 180 180 180 181 178 176 179 175 167 171 172 171 168 167 165 166 173 183 185 193 190 194 204 201 198 201 196 190 177 168 148 160 197 209 229 256 264 245 240 249 262 248 244 164 176 201 215 222 231 236
172 176 177 175 179 180 179 180 190 192 189 187 181 180 185 188 188 181 180 177 171 170 175 167 162 161 167 172 170 179 187 192 198 193 193 197 188 183 185 188 193 199 186 192 240 239 247 260 259 267 283 281 267 260 256 178 180 199 208 215 221 220 240
166 182 183 188 186 187 188 186 186 188 184 181 181 184 188 191 187 182 182 180 174 172 165 155 156 161 169 169 173 177 183 191 197 192 192 193 193 190 190 194 201 201 204 205 209 218 222 241 262 262 253 259 262 250 202 183 194 212 214 210 211 221 229
158 169 196 208 203 194 192 191 187 181 179 181 183 187 192 191 184 180 181 175 171 162 154 146 150 157 166 158 156 160 185 192 192 184 187 191 187 187 190 197 195 196 199 206 214 215 219 222 237 250 261 255 240 252 243 199 200 206 208 217 225 223 230
96 111 156 201 212 210 198 190 184 183 185 184 185 189 192 187 177 173 148 119 101 106 115 133 144 149 151 161 163 174 184 180 187 184 189 184 190 190 194 191 192 195 198 207 223 227 222 227 232 240 242 240 242 240 224 216 209 205 212 221 231 233 229
176 229 248 174 193 200 207 202 194 188 189 185 187 191 188 171 112 68 61 57 56 69 76 135 159 154 160 166 179 181 181 194 193 193 191 196 194 192 190 192 197 202 204 217 223 224 225 229 233 236 233 230 235 239 214 216 226 214 220 230 241 256 251
192 208 288 294 184 196 199 205 203 198 190 186 189 186 135 100 111 122 126 135 147 155 169 176 162 155 163 172 179 172 203 201 197 198 202 200 195 192 193 193 205 207 208 217 224 226 229 229 229 231 227 222 227 225 220 235 246 230 224 227 235 241 246
190 184 205 225 245 199 202 200 202 178 156 178 169 112 113 129 127 131 139 148 159 165 145 102 127 188 176 176 189 196 196 196 199 204 205 201 195 192 194 199 206 210 214 214 220 220 219 223 231 236 232 226 198 191 225 237 235 232 223 220 229 261 252
202 202 209 212 219 233 192 202 197 172 174 135 112 127 129 137 144 143 150 156 149 136 134 140 182 202 181 180 200 206 199 197 201 206 203 195 191 191 199 201 203 213 218 225 231 229 221 221 213 218 221 218 196 198 229 245 242 236 224 199 201 211 230
196 207 213 214 195 212 209 193 186 160 141 135 129 127 131 132 128 116 108 89 61 53 65 222 224 212 190 197 200 201 200 197 199 201 194 188 188 197 199 201 212 222 219 225 228 231 230 234 231 227 230 262 351 348 340 7 21 29 13 271 212 176 219
72 93 124 123 102 95 90 102 132 142 144 140 128 119 122 120 125 127 118 132 140 154 180 218 244 225 209 203 200 201 194 192 193 194 192 187 195 199 202 205 212 219 214 216 224 233 228 235 14 22 15 30 39 87 126 149 199 185 197 210 211 214 253
56 86 97 107 108 105 77 93 130 143 140 138 123 130 131 128 113 112 165 173 168 174 189 206 226 215 209 207 201 194 187 189 189 190 190 195 201 197 201 209 214 221 207 210 214 221 46 48 89 139 203 200 157 154 167 209 224 195 193 205 213 205 221
101 96 96 86 87 110 116 99 106 132 141 134 134 140 138 137 147 163 170 176 177 188 203 214 223 214 208 201 189 182 185 185 187 186 192 203 204 207 218 223 223 229 236 244 157 78 80 104 123 160 230 237 161 208 222 227 249 203 194 187 216 211 212
147 142 142 144 131 125 104 120 122 146 141 137 142 147 147 145 148 167 179 177 185 203 211 215 221 207 190 177 172 178 183 183 182 179 128 65 53 22 313 276 116 35 0 39 51 72 106 174 175 121 148 209 213 209 231 239 221 187 180 197 199 184 183
105 94 78 90 135 126 116 114 113 137 137 146 152 150 152 155 166 176 176 179 197 209 209 214 209 190 177 177 183 186 184 156 104 109 136 144 147 179 218 238 85 75 64 45 42 53 35 1 68 93 192 195 205 214 235 249 220 192 198 179 169 177 180
88 81 80 86 74 60 80 60 44 48 150 155 151 155 163 163 167 171 176 191 205 203 204 205 195 190 186 183 187 179 129 123 141 129 127 142 130 108 55 27 24 32 64 109 141 137 358 332 269 240 227 211 224 243 257 254 187 188 208 164 153 144 154
104 96 89 98 101 83 89 92 102 88 305 202 164 160 161 164 169 174 180 197 200 189 179 175 178 171 168 173 157 106 108 102 93 96 104 106 101 109 127 136 155 99 350 284 174 179 252 258 250 244 224 223 248 262 274 283 278 268 258 114 103 113 165
109 127 121 103 73 77 80 102 109 96 286 250 175 158 163 173 165 165 158 172 132 117 115 112 112 112 114 115 111 110 116 121 117 113 107 118 130 133 142 120 68 171 204 195 168 183 229 255 241 245 229 206 239 259 268 251 199 35 75 73 41 67 27
71 72 71 67 60 66 90 97 98 104 256 248 178 159 156 150 143 133 148 143 121 122 120 120 117 120 120 110 111 122 126 114 120 126 138 136 135 144 160 172 183 185 182 162 192 207 236 272 258 235 216 217 228 234 249 90 77 56 33 26 16 11 350
70 77 93 99 120 116 104 104 108 112 237 269 198 139 129 124 125 130 134 130 129 125 123 115 124 124 121 120 122 126 131 137 151 162 147 128 141 147 178 189 177 170 161 161 169 164 178 246 289 281 227 205 214 234 272 93 74 39 4 357 355 336 340
87 89 89 100 99 111 126 132 128 113 88 272 221 128 123 127 134 138 137 136 137 134 130 132 132 139 144 145 146 148 154 161 167 154 139 123 97 66 71 99 132 131 110 118 134 162 184 235 327 231 198 190 223 215 185 122 89 34 349 331 331 309 298
131 115 123 104 96 93 90 82 111 120 118 278 245 135 130 136 144 144 147 147 136 134 130 133 132 134 147 149 151 158 154 150 150 150 130 105 86 60 41 8 32 96 95 17 321 338 97 114 117 39 4 117 65 210 171 116 123 163 224 275 290 285 302
154 136 131 136 127 122 119 123 124 109 112 278 301 93 111 100 98 98 94 104 123 129 128 135 139 139 140 147 140 127 138 143 141 134 133 127 125 116 79 57 49 33 122 124 36 38 40 82 128 226 135 103 54 28 105 144 164 144 206 262 270 270 261
151 128 110 107 105 111 113 102 97 89 68 21 337 3 23 30 91 106 108 103 112 123 131 131 133 132 123 102 108 136 140 145 143 149 135 142 143 131 122 100 43 37 39 55 57 41 55 70 75 73 89 118 113 34 73 95 55 335 299 297 285 265 260
132 146 147 146 128 129 121 127 137 142 147 156 182 206 184 122 109 124 112 110 109 111 118 123 125 132 124 125 144 148 152 162 157 153 143 142 145 141 141 128 116 73 39 45 61 55 68 67 61 65 79 95 119 136 68 188 269 344 330 311 299 285 265